SM5FGQ-2 Weather Reports


Display with metric or nautical units.
time (UTC)temp
F
wind
direction
speed
MPH
gust
MPH
rain 1hr
in
rain 24hr
in
rain mn
in
humidity
%
barometer
mb
20260903033107 49 240 1.0 3.0 0.00 0.01 0.00 87 1004.4
20260903030057 49 264 1.0 5.0 0.00 0.01 0.00 86 1004.5
20260903023046 49 180 1.0 4.0 0.00 0.01 0.00 86 1004.5
20260903020037 48 220 1.0 3.0 0.00 0.01 0.00 86 1004.7
20260903013027 48 199 0.0 3.0 0.00 0.01 0.00 83 1004.8
20260903010017 49 229 0.0 2.0 0.00 0.01 0.00 81 1004.9
20260903003107 50 197 0.0 2.0 0.00 0.01 0.00 80 1005.0
20260903000057 50 192 1.0 5.0 0.00 0.01 0.00 78 1005.2
20260902233047 52 233 0.0 3.0 0.00 0.01 0.00 75 1005.2
20260902230037 52 214 1.0 5.0 0.00 0.01 0.00 73 1005.3
20260902223027 53 236 1.0 5.0 0.00 0.01 0.00 72 1005.3
20260902220017 53 236 1.0 6.0 0.00 0.01 0.00 71 1005.3
20260902213127 53 256 1.0 6.0 0.00 0.01 0.01 70 1005.2
20260902210117 54 234 0.0 3.0 0.00 0.01 0.01 66 1005.2
20260902203107 55 206 0.0 3.0 0.00 0.01 0.01 62 1005.2
20260902200038 55 222 0.0 2.0 0.00 0.01 0.01 60 1005.1
20260902193027 57 217 0.0 3.0 0.00 0.01 0.01 56 1005.0
20260902190017 59 236 1.0 5.0 0.00 0.01 0.01 53 1004.9
20260902183107 61 236 3.0 6.0 0.00 0.01 0.01 50 1004.7
20260902180057 63 250 3.0 9.0 0.00 0.01 0.01 47 1004.6
20260902173046 64 273 2.0 6.0 0.00 0.01 0.01 45 1004.5
20260902170037 65 278 3.0 11.0 0.00 0.01 0.01 43 1004.4
20260902163028 67 254 3.0 11.0 0.00 0.01 0.01 41 1004.5
20260902160020 68 266 5.0 13.0 0.00 0.01 0.01 40 1004.6
20260902153108 69 283 5.0 17.0 0.00 0.01 0.01 40 1004.7
20260902150059 69 266 6.0 17.0 0.00 0.01 0.01 41 1004.7
20260902143049 69 284 5.0 13.0 0.00 0.01 0.01 42 1004.7
20260902140040 69 265 7.0 15.0 0.00 0.01 0.01 45 1004.7
20260902133030 69 272 5.0 12.0 0.00 0.01 0.01 49 1004.6
20260902130020 68 294 6.0 20.0 0.00 0.01 0.01 53 1004.8
20260902123151 66 293 4.0 11.0 0.01 0.02 0.01 66 1005.0
20260902113052 69 248 3.0 9.0 0.00 0.16 0.00 59 1005.1
20260902110040 68 209 3.0 9.0 0.00 0.16 0.00 63 1005.5
20260902103030 67 220 5.0 13.0 0.00 0.16 0.00 64 1005.7
20260902100020 66 220 4.0 12.0 0.00 0.16 0.00 67 1005.8
20260902093110 67 208 4.0 9.0 0.00 0.16 0.00 66 1005.8
20260902090100 66 236 3.0 7.0 0.00 0.16 0.00 69 1005.8
20260902083051 65 233 3.0 8.0 0.00 0.16 0.00 69 1005.9
20260902080040 63 249 4.0 14.0 0.00 0.16 0.00 72 1005.9
20260902073032 63 258 3.0 7.0 0.00 0.16 0.00 71 1005.8
20260902070021 60 225 2.0 7.0 0.00 0.16 0.00 79 1005.8
20260902063152 56 204 1.0 6.0 0.00 0.16 0.00 84 1005.8
20260902053052 53 237 1.0 8.0 0.00 0.16 0.00 93 1005.8
20260902050042 52 228 0.0 3.0 0.00 0.16 0.00 93 1005.7
20260902043033 52 265 0.0 2.0 0.00 0.16 0.00 92 1005.6
20260902040022 53 239 0.0 3.0 0.00 0.16 0.00 92 1005.6